カタログに戻る

DELTA 1 DEB

運用中SSO
NORAD 10838·DEBRIS·🇺🇸 United States

打ち上げ Jul 29, 1976 から Vandenberg Space Force Base

Loading…

次のパス (今後24時間)

TLE

最新Source: Space-Track

元期: Sep 14, 2026, 11:24 UTC

1 10838U 76077CJ  26257.47521682 -.00000037  00000-0  38597-4 0  9991
2 10838 101.5804 264.9588 0040172 351.9029 165.9548 12.40887302270154

AllMySatでDELTA 1 DEBをリアルタイム追跡

Download on the App Store